Waarnemingen

Advertentie
Mijn weer
Kvarn, Zweden (2561): temperatuur & dauwpunt: 17.09.2018 03:00:00 - 23.09.2018 03:00:00 (CEST)Kvarn, Zweden (2561): windsnelheid & windstoten: 17.09.2018 03:00:00 - 23.09.2018 03:00:00 (CEST)Kvarn, Zweden (2561): windrichting: 17.09.2018 03:00:00 - 23.09.2018 03:00:00 (CEST)Kvarn, Zweden (2561): luchtdruk: 17.09.2018 03:00:00 - 23.09.2018 03:00:00 (CEST)Kvarn, Zweden (2561): zicht: 17.09.2018 03:00:00 - 23.09.2018 03:00:00 (CEST)Kvarn, Zweden (2561): neerslag: 17.09.2018 03:00:00 - 23.09.2018 03:00:00 (CEST)
Datum & Tijd tt [°C] td [°C] ff [km/u] ff [kn] fx [km/u] fx [kn] dd ppp [hPa] vv [km] rr [mm]
23.09.2018 03:00:00 10,3 7,9 7 4 22 12 WZW 998,5 45 0,0
23.09.2018 02:00:00 10,3 8,2 7 4 25 14 WZW 998,6 45 0,0
23.09.2018 01:00:00 10,3 8,4 7 4 22 12 ZW 998,4 40 0,0
23.09.2018 00:00:00 9,4 8,3 4 2 22 12 ZZW 998,8 30 0,1
22.09.2018 23:00:00 9,7 7,1 11 6 25 14 ZW 999,0 45 0,0
22.09.2018 22:00:00 9,6 6,7 11 6 29 16 ZW 999,3 45 0,0
22.09.2018 21:00:00 10,0 6,2 11 6 29 16 ZW 999,5 45 0,0
22.09.2018 20:00:00 10,2 5,8 11 6 29 16 ZW 999,1 45 0,0
22.09.2018 19:00:00 10,5 5,1 14 8 40 21 ZW 999,2 45 0,0
22.09.2018 18:00:00 11,7 5,6 18 10 40 21 ZW 999,2 45 0,0
22.09.2018 17:00:00 12,5 6,3 14 8 40 21 ZW 999,2 35 0,0
22.09.2018 16:00:00 13,0 5,9 18 10 36 19 ZW 999,4 35 0,0
22.09.2018 15:00:00 14,1 4,1 18 10 50 27 WZW 999,2 40 0,0
22.09.2018 14:00:00 15,1 5,0 18 10 50 27 WZW 998,6 40 0,0
22.09.2018 13:00:00 14,6 4,9 22 12 47 25 WZW 998,3 30 0,0
22.09.2018 12:00:00 14,6 6,2 18 10 43 23 W 997,5 35 0,0
22.09.2018 11:00:00 13,6 5,5 18 10 43 23 WZW 996,8 23 0,0
22.09.2018 10:00:00 12,3 5,7 14 8 43 23 WZW 995,8 26 0,0
22.09.2018 09:00:00 11,9 6,4 18 10 47 25 WZW 994,5 25 0,0
22.09.2018 08:00:00 12,1 7,0 18 10 50 27 WZW 993,0 23 0,0
22.09.2018 07:00:00 11,9 7,6 18 10 43 23 ZW 991,9 24 0,0
22.09.2018 06:00:00 11,6 7,7 18 10 47 25 ZW 990,9 26 0,0
22.09.2018 05:00:00 11,0 7,3 18 10 47 25 ZW 990,6 35 0,0
22.09.2018 04:00:00 11,0 6,7 22 12 50 27 ZZW 990,8 40 0,0
22.09.2018 03:00:00 11,1 6,6 18 10 43 23 ZZW 990,5 45 0,0
22.09.2018 02:00:00 11,0 6,5 18 10 50 27 ZZW 990,6 45 0,0
22.09.2018 01:00:00 11,2 7,3 14 8 43 23 ZZW 991,1 45 0,0
22.09.2018 00:00:00 10,9 8,1 14 8 43 23 ZZW 991,2 35 0,0
21.09.2018 23:00:00 11,4 8,8 11 6 29 16 ZZW 991,9 35 0,0
21.09.2018 22:00:00 11,9 9,8 11 6 29 16 ZZW 992,4 35 0,0
21.09.2018 21:00:00 12,1 11,2 11 6 25 14 ZZW 992,3 23 0,0
21.09.2018 20:00:00 12,1 11,8 4 2 25 14 Z 992,7 14 0,4
21.09.2018 19:00:00 13,7 12,4 11 6 36 19 ZZW 993,4 26 0,0
21.09.2018 18:00:00 15,0 15,0 11 6 32 18 ZZW 993,1 45 0,3
21.09.2018 17:00:00 - - - - 50 27 - 993,7 6 4,0
21.09.2018 16:00:00 22,5 13,6 14 8 32 18 ZZW 992,3 40 0,0
21.09.2018 15:00:00 22,5 13,3 11 6 36 19 Z 993,0 45 0,0
21.09.2018 14:00:00 22,6 15,7 11 6 29 16 Z 994,4 30 0,0
21.09.2018 13:00:00 19,7 15,3 7 4 25 14 ZZO 995,5 25 0,0
21.09.2018 12:00:00 18,5 15,2 7 4 18 10 ZO 996,9 22 0,0
21.09.2018 11:00:00 17,4 15,6 7 4 14 8 ZO 998,9 35 0,0
21.09.2018 10:00:00 16,6 15,3 4 2 14 8 ZZO 1000,3 30 0,0
21.09.2018 09:00:00 15,9 15,3 4 2 14 8 ZO 1001,4 24 0,0
21.09.2018 08:00:00 15,1 14,9 4 2 14 8 ZO 1002,4 21 0,0
21.09.2018 07:00:00 14,7 14,7 4 2 18 10 ZZO 1003,0 17 0,0
21.09.2018 06:00:00 13,7 13,7 4 2 14 8 ZZO 1003,6 16 0,0
21.09.2018 05:00:00 13,0 13,0 4 2 14 8 ZZO 1004,6 30 0,0
21.09.2018 04:00:00 12,4 12,4 7 4 14 8 ZO 1005,5 15 0,1
21.09.2018 03:00:00 11,6 11,6 4 2 7 4 OZO 1006,5 3,8 0,7
21.09.2018 02:00:00 11,1 10,6 4 2 7 4 ZO 1007,7 30 0,0
21.09.2018 01:00:00 8,9 8,8 0 0 7 4 N 1008,7 30 0,0
21.09.2018 00:00:00 8,1 8,1 0 0 4 2 N 1009,2 22 0,0
20.09.2018 23:00:00 8,5 8,1 0 0 7 4 N 1009,6 27 0,0
20.09.2018 22:00:00 10,1 8,7 4 2 14 8 ZZO 1009,5 35 0,0
20.09.2018 21:00:00 12,2 8,7 4 2 22 12 ZZW 1009,4 40 0,0
20.09.2018 20:00:00 13,6 8,6 7 4 29 16 WZW 1008,9 40 0,0
20.09.2018 19:00:00 14,7 9,1 11 6 32 18 WZW 1009,0 40 0,0
20.09.2018 18:00:00 15,2 9,3 18 10 36 19 ZW 1008,4 35 0,0
20.09.2018 17:00:00 15,9 8,9 14 8 36 19 ZW 1008,1 30 0,0
20.09.2018 16:00:00 16,3 10,8 7 4 25 14 ZW 1007,8 30 0,0
20.09.2018 15:00:00 15,7 9,4 14 8 25 14 WZW 1008,0 23 0,0
20.09.2018 14:00:00 16,5 8,2 11 6 32 18 ZW 1008,3 28 0,0
20.09.2018 13:00:00 16,5 8,2 14 8 43 23 ZW 1008,3 30 0,0
20.09.2018 12:00:00 16,4 8,6 14 8 43 23 ZW 1008,5 30 0,0
20.09.2018 11:00:00 16,6 9,3 18 10 43 23 ZW 1008,4 26 0,0
20.09.2018 10:00:00 15,3 9,4 14 8 40 21 WZW 1008,2 22 0,0
20.09.2018 09:00:00 15,1 10,7 11 6 32 18 ZW 1007,4 20 0,0
20.09.2018 08:00:00 14,5 10,5 11 6 25 14 ZZW 1006,9 17 0,0
20.09.2018 07:00:00 15,2 9,8 11 6 32 18 ZW 1006,7 23 0,0
20.09.2018 06:00:00 17,0 11,5 11 6 32 18 ZW 1006,0 45 0,0
20.09.2018 05:00:00 17,8 14,3 11 6 29 16 ZW 1005,7 30 0,1
20.09.2018 04:00:00 17,9 13,8 11 6 29 16 ZZW 1005,4 35 0,0
20.09.2018 03:00:00 17,6 13,7 11 6 32 18 ZZW 1005,6 35 0,0
20.09.2018 02:00:00 17,7 13,8 14 8 32 18 ZZW 1006,2 40 0,0
20.09.2018 01:00:00 17,5 14,6 11 6 29 16 ZZW 1006,7 30 0,0
20.09.2018 00:00:00 17,1 14,2 7 4 18 10 ZZW 1007,4 30 0,0
19.09.2018 23:00:00 17,0 14,3 7 4 22 12 ZZW 1007,9 30 0,0
19.09.2018 22:00:00 17,7 14,2 11 6 22 12 ZZW 1008,7 35 0,0
19.09.2018 21:00:00 17,8 14,1 7 4 22 12 ZZW 1009,1 35 0,0
19.09.2018 20:00:00 17,8 13,9 11 6 25 14 ZW 1009,5 40 0,0
19.09.2018 19:00:00 18,7 13,5 11 6 25 14 ZW 1009,4 45 0,0
19.09.2018 18:00:00 19,8 13,9 11 6 25 14 ZZW 1009,6 35 0,0
19.09.2018 17:00:00 20,8 14,0 11 6 29 16 ZW 1009,8 35 0,0
19.09.2018 16:00:00 20,7 13,9 14 8 40 21 WZW 1009,8 35 0,0
19.09.2018 15:00:00 21,0 13,9 14 8 40 21 ZW 1009,7 30 0,0
19.09.2018 14:00:00 20,5 14,2 14 8 32 18 ZW 1009,9 30 0,0
19.09.2018 13:00:00 20,0 14,4 11 6 40 21 WZW 1009,7 30 0,0
19.09.2018 12:00:00 19,4 14,0 14 8 32 18 WZW 1009,2 35 0,0
19.09.2018 11:00:00 18,4 13,9 11 6 32 18 ZW 1009,1 30 0,0
19.09.2018 10:00:00 18,2 13,5 11 6 29 16 WZW 1008,8 26 0,0
19.09.2018 09:00:00 17,4 12,7 11 6 40 21 W 1008,5 35 0,0
19.09.2018 08:00:00 16,8 14,3 11 6 32 18 WZW 1007,7 30 0,0
19.09.2018 07:00:00 16,2 14,6 11 6 22 12 ZW 1006,9 30 0,0
19.09.2018 06:00:00 16,9 14,9 11 6 25 14 ZW 1006,6 35 0,0
19.09.2018 05:00:00 16,8 15,0 11 6 25 14 ZW 1006,6 40 0,0
19.09.2018 04:00:00 17,4 14,5 11 6 22 12 ZW 1006,4 45 0,0
19.09.2018 03:00:00 17,4 13,9 7 4 18 10 ZZW 1006,4 45 0,0
19.09.2018 02:00:00 13,9 12,1 4 2 14 8 Z 1006,7 45 0,0
19.09.2018 01:00:00 15,5 11,9 4 2 14 8 ZZO 1006,9 45 0,0
19.09.2018 00:00:00 15,3 11,7 4 2 11 6 Z 1007,0 45 0,0
18.09.2018 23:00:00 16,1 11,7 4 2 14 8 Z 1006,9 50 0,0
18.09.2018 22:00:00 16,5 12,1 4 2 14 8 Z 1007,0 45 0,0
18.09.2018 21:00:00 14,8 12,5 4 2 11 6 Z 1007,2 45 0,0
18.09.2018 20:00:00 14,4 12,4 0 0 4 2 N 1007,4 45 0,0
18.09.2018 19:00:00 16,9 12,2 0 0 11 6 N 1007,8 50 0,0
18.09.2018 18:00:00 22,1 11,5 4 2 22 12 ZZW 1007,8 45 0,0
18.09.2018 17:00:00 24,3 9,8 7 4 29 16 ZZW 1007,9 45 0,0
18.09.2018 16:00:00 24,2 9,7 11 6 29 16 ZW 1008,5 45 0,0
18.09.2018 15:00:00 23,9 11,9 7 4 25 14 ZW 1009,1 35 0,0
18.09.2018 14:00:00 22,7 14,0 11 6 25 14 ZW 1009,9 35 0,0
18.09.2018 13:00:00 21,4 15,0 11 6 32 18 ZZW 1010,5 40 0,0
18.09.2018 12:00:00 20,4 15,0 11 6 32 18 ZW 1011,1 40 0,0
18.09.2018 11:00:00 18,5 15,0 14 8 32 18 ZW 1011,3 35 0,0
18.09.2018 10:00:00 16,4 15,3 4 2 18 10 ZZW 1011,7 40 0,0
18.09.2018 09:00:00 14,0 13,5 4 2 7 4 Z 1012,0 30 0,0
18.09.2018 08:00:00 12,8 12,6 4 2 7 4 ZZO 1012,3 30 0,0
18.09.2018 07:00:00 11,5 11,5 4 2 7 4 ZZO 1012,5 30 0,0
18.09.2018 06:00:00 10,6 10,6 0 0 7 4 N 1012,8 30 0,0
18.09.2018 05:00:00 9,9 9,9 4 2 7 4 ZO 1012,9 30 0,0
18.09.2018 04:00:00 9,6 9,6 0 0 4 2 N 1013,4 28 0,0
18.09.2018 03:00:00 9,9 9,9 0 0 7 4 N 1013,8 30 0,0
18.09.2018 02:00:00 10,4 10,2 0 0 7 4 N 1014,0 35 0,0
18.09.2018 01:00:00 10,4 10,2 4 2 4 2 ZO 1014,3 35 0,0
18.09.2018 00:00:00 10,8 10,3 4 2 4 2 ZZO 1014,2 35 0,0
17.09.2018 23:00:00 10,4 9,9 0 0 7 4 N 1014,3 40 0,0
17.09.2018 22:00:00 10,9 9,5 4 2 7 4 ZW 1014,8 45 0,0
17.09.2018 21:00:00 11,7 8,5 4 2 14 8 ZZW 1014,6 45 0,0
17.09.2018 20:00:00 12,7 8,2 4 2 14 8 WZW 1014,0 45 0,0
17.09.2018 19:00:00 13,3 8,6 4 2 14 8 WZW 1013,6 45 0,0
17.09.2018 18:00:00 14,9 7,9 4 2 22 12 W 1013,2 40 0,0
17.09.2018 17:00:00 15,3 7,6 4 2 25 14 W 1012,9 45 0,0
17.09.2018 16:00:00 15,8 8,3 7 4 32 18 W 1012,5 45 0,0
17.09.2018 15:00:00 16,0 8,0 11 6 32 18 WNW 1012,5 40 0,0
17.09.2018 14:00:00 15,3 9,4 14 8 36 19 W 1011,7 40 0,0
17.09.2018 13:00:00 14,9 9,9 11 6 32 18 W 1011,0 35 0,0
17.09.2018 12:00:00 14,8 10,8 14 8 36 19 W 1010,2 40 0,0
17.09.2018 11:00:00 14,3 12,5 11 6 29 16 WZW 1009,6 23 0,0
17.09.2018 10:00:00 14,2 12,8 11 6 29 16 WZW 1009,2 30 0,0
17.09.2018 09:00:00 14,2 12,9 11 6 29 16 WZW 1008,7 30 0,0
17.09.2018 08:00:00 13,4 13,1 7 4 22 12 WZW 1008,6 30 0,0
17.09.2018 07:00:00 13,3 13,3 7 4 22 12 WZW 1008,2 30 0,0
17.09.2018 06:00:00 13,7 13,7 7 4 22 12 ZW 1007,9 21 0,4
17.09.2018 05:00:00 13,7 13,7 7 4 25 14 ZZW 1008,2 30 0,2
17.09.2018 04:00:00 13,3 13,3 7 4 18 10 ZZW 1008,4 7 0,8
17.09.2018 03:00:00 12,3 12,3 4 2 14 8 ZW 1008,8 16 0,2

tt = temperatuur
td = dauwpunt
ff = windsnelheid
fx = windstoten
dd = windrichting
ppp = luchtdruk
vv = zicht
rr = neerslag

Weerstations in de omgeving